sat.trackr.live / text

‹ back to catalog

FLOCK 4Q-22

NORAD 58306 · 2023-174BC

PAYLOAD ACTIVE UNKNOWN

§ Identity

Operator
Country
US
Launch date
2023-11-11
Launch site
AFWTR
Launch vehicle
Mass (kg)
RCS (m²)

Purposes: earth_obs

External: N2YO · Heavens-Above · Gunter

§ Orbital elements

Epoch: 2026-05-24T23:43:28.401024Z

Period
92.45 min
Inclination
97.3814°
Eccentricity
0.0005109
Mean motion
15.57615100 rev/d
Perigee alt
391.1 km
Apogee alt
398.0 km
Semi-major
6,772.7 km
B*
4.8975e-4
RAAN
236.3917°
Arg perigee
199.7049°
Mean anomaly
160.4010°
Rev number
14,225

§ Raw data

FLOCK 4Q-221 58306U 23174BC  26144.98852316  .00036179  00000+0  48975-3 0  99992 58306  97.3814 236.3917 0005109 199.7049 160.4010 15.57615100142258

JSON: /api/v1/satellites/58306 · /tle

For live sub-satellite position, see the globe view (requires WebGL).

§ Visibility from observer

Set your observer location to see the next 7 days of passes ≥ 10°. The values pass through the URL so the page stays shareable.

No JS? Fill the form by hand. The geolocation button needs JavaScript.